Location: A O Calhoun Middle School
(33.2198°N, 97.1397°W)
Time: 08:42:55
(UTC+00:00)

Cosmos 1515 Rocket - Pass Details

Date: 08 December 2021
Orbit: 605 x 630 km, 82.5° (Epoch: 25 January)

Event Time Altitude Azimuth Distance (km) Brightness Sun altitude
Exits shadow 12:11:02 - 347° (NNW) 2,498 6.4 -14.1°
Reaches altitude 10° 12:12:22 10° 344° (NNW) 1,965 5.8 -13.9°
Maximum altitude 12:16:37 56° 266° (W) 719 3.6 -13.0°
Drops below altitude 10° 12:20:50 10° 188° (S) 1,945 6.3 -12.2°
Sets 12:23:03 0° 184° (S) 2,844 7.2 -11.8°
